Tracking 21076 objects as of 10-Aug-2020
HD Live streaming from Space Station
objects crossing your sky now
Track the most recent launched group of Starlink satellites

FENGYUN 1C DEB

Track FENGYUN 1C DEB now!
10-day predictions


NORAD ID: 30815
Int'l Code: 1999-025AUZ
Perigee: 801.3 km
Apogee: 806.3 km
Inclination: 99.3 °
Period: 100.8 minutes
Semi major axis: 7174 km
RCS: 0.0091 m2 (small)
Launch date: May 10, 1999
Source: People's Republic of China (PRC)
Launch site: Taiyaun Space Center, China (TSC)

Note: This is SATELLITE DEBRIS
aabbcc
Your satellite tracking list
Your tracking list is empty




NASA's NSSDC Master Catalog

Two Line Element Set (TLE):
1 30815U 99025AUZ 20223.42480441  .00000614  00000-0  26485-3 0  9997
2 30815  99.3239 182.3140 0003523  27.2337  97.6081 14.28520590697199
Source of the keplerian elements: AFSPC